Location: Proctor
(47.8934°N, 114.3048°W)
Time: 01:48:50
(UTC+00:00)

Altair - Visible Passes

Search period start: 13 June 2024 00:00
Search period end: 23 June 2024 00:00
Orbit: 1502 x 1682 km, 47.2° (Epoch: 12 June)

Date Brightness Start Highest point End Pass type
(mag) Time Alt. Az. Time Alt. Az. Time Alt. Az.
13 Jun 8.4 10:57:19 10° SSW 11:05:39 38° SE 11:14:15 10° ENE visible
14 Jun 8.4 10:32:25 10° SSW 10:40:33 36° SE 10:48:57 10° ENE visible
15 Jun 8.4 10:07:49 11° SSW 10:15:28 33° SE 10:23:37 10° ENE visible
16 Jun 8.5 09:43:46 14° S 09:50:23 31° SE 09:58:17 10° ENE visible
17 Jun 8.5 09:19:42 16° S 09:25:19 28° SE 09:32:56 10° E visible
18 Jun 8.5 08:55:35 17° S 09:00:16 26° SE 09:07:33 10° E visible
18 Jun 7.7 10:54:28 10° SW 11:03:35 63° SSE 11:13:03 10° ENE visible
19 Jun 8.6 08:31:24 18° SSE 08:35:12 24° SE 08:42:08 10° E visible
19 Jun 7.7 10:29:23 10° SW 10:38:25 60° SSE 10:47:48 10° ENE visible
20 Jun 8.6 08:07:11 18° SSE 08:10:10 22° SE 08:16:42 10° E visible
20 Jun 7.7 10:05:09 13° SW 10:13:17 57° SSE 10:22:32 10° ENE visible
21 Jun 8.6 07:42:54 18° SE 07:45:08 20° SE 07:51:13 10° E visible
21 Jun 7.7 09:40:52 17° SW 09:48:08 54° SSE 09:57:17 10° ENE visible
22 Jun 8.7 07:18:33 17° SE 07:20:06 18° SE 07:25:40 10° E visible
22 Jun 7.7 09:16:32 20° SSW 09:23:00 51° SSE 09:32:02 10° ENE visible
